Regional Weather Roundup
Issued by NWS

Home | Current Version | Previous Version | Graphics & Text | Print | Product List | Glossary On
Versions: 1 2 3 4 5 6 7 8 9 10 11 12 13 14 15 16 17 18 19 20 21 22 23 24 25 26 27 28 29 30 31 32 33 34 35 36 37 38 39 40 41 42 43 44 45 46 47 48 49 50
000
ASUS43 KLOT 191510
RWRIL

ILLINOIS REGIONAL WEATHER ROUNDUP
NATIONAL WEATHER SERVICE CHICAGO/ROMEOVILLE IL
900 AM CST FRI DEC 19 2014

NOTE: "FAIR" INDICATES FEW OR NO CLOUDS BELOW 12,000 FEET WITH NO
SIGNIFICANT WEATHER AND/OR OBSTRUCTIONS TO VISIBILITY.

* THESE STATIONS ARE NOT UNDER NWS QUALITY CONTROL. THEY ALSO MAY NOT
  REPORT WEATHER SUCH AS PRECIPITATION OR FOG.

ILZ001-002-007-009-015-016-024-191600-
NORTHWEST ILLINOIS

CITY           SKY/WX    TMP DP  RH WIND       PRES   REMARKS
MOLINE         SUNNY     20  18  92 CALM      30.33R FOG
STERLING*      CLOUDY    27  21  80 N3        30.32R
SAVANNA*       CLOUDY    27  20  75 CALM      30.32S
$$

ILZ003-004-008-010-011-017-018-191600-
NORTH CENTRAL ILLINOIS

CITY           SKY/WX    TMP DP  RH WIND       PRES   REMARKS
ROCKFORD       FLURRIES  27  21  78 NE5       30.32S WCI  22
FREEPORT*      CLOUDY    25  21  83 CALM      30.32S
ROCHELLE*      CLOUDY    27  23  85 N9        30.31R WCI  17
DE KALB*       SUNNY     26  21  81 N9        30.30R WCI  17
PERU*          SUNNY     24  20  87 CALM      30.33R
$$

ILZ005-006-012>014-019>023-191600-
NORTHEAST ILLINOIS

CITY           SKY/WX    TMP DP  RH WIND       PRES   REMARKS
CHICAGO-OHARE  CLOUDY    28  21  75 N7        30.30R WCI  21
CHICAGO-MIDWAY CLOUDY    31  22  69 N7        30.30R WCI  24
AURORA         CLOUDY    29  22  75 NE8       30.30S WCI  21
LANSING*       CLOUDY    29  24  82 CALM      30.30R
JOLIET*        CLOUDY    28  23  80 CALM      30.31R
WAUKEGAN       CLOUDY    27  20  75 NW6       30.30R WCI  20
DUPAGE AIRPORT CLOUDY    29  22  75 N6        30.29S WCI  23
KANKAKEE*      CLOUDY    26  23  87 W5        30.32R WCI  21
WHEELING       CLOUDY    28  20  71 N7        30.32R WCI  21
MORRIS*        SUNNY     24  22  92 CALM      30.31R
ROMEOVILLE*    CLOUDY    29  23  80 N6        30.30R WCI  23
NORTHERLY ISL    N/A     30  22  72 N7          N/A  WCI  23
$$

LMZ740>746-191600-
SOUTHERN LAKE MICHIGAN

STATION/POSITION SKY/WX   TEMP    WIND        PRES    VSBY  WAVE
                          AIR SEA DIR/SP/G                  HT/PER
                          (F)     (DEG/KT/KT) (MB)    (MI)  (FT/S)
WAUKEGAN HARBOR            27     330/  3/  7   N/A
HARRISON CRIB              30     340/  9/ 11   N/A
BURNHAM HARBOR             30     350/  7/  9   N/A
CALUMET HARBOR             31     300/  3/  4 1024.6R
$$

ILZ025>027-034>036-040-047-049-050-058-095>099-191600-
WEST-CENTRAL ILLINOIS

CITY           SKY/WX    TMP DP  RH WIND       PRES   REMARKS
QUINCY         CLOUDY    29  22  75 E6        30.31R WCI  23
GALESBURG*     SUNNY     24  20  86 CALM      30.33R
MACOMB*        CLOUDY    26  23  87 E5        30.35R WCI  21
JACKSONVILLE*  CLOUDY    32  26  80 E5        30.33R WCI  27
PITTSFIELD*    MOSUNNY   31  26  81 NE3       30.32S
$$

ILZ028>032-037-038-041>044-048-051>054-059>061-191600-
CENTRAL ILLINOIS

CITY           SKY/WX    TMP DP  RH WIND       PRES   REMARKS
PONTIAC        SUNNY     23  20  90 W3        30.34R FOG
BLOOMINGTON    SUNNY     23  19  85 CALM      30.33R FOG
DECATUR        SUNNY     26  22  84 CALM      30.33S FOG
PEORIA         SUNNY     24  19  81 CALM      30.34R HAZE
LACON*         MOSUNNY   20  17  89 CALM      30.33R FOG
LINCOLN*       SUNNY     24  22  91 CALM      30.36S FOG
SPRINGFIELD    CLOUDY    28  22  78 E5        30.34R WCI  23
TAYLORVILLE    SUNNY     28  23  80 NE3       30.34R
$$

ILZ033-039-045-046-055>057-062-063-191600-
EAST-CENTRAL ILLINOIS

CITY           SKY/WX    TMP DP  RH WIND       PRES   REMARKS
CHAMPAIGN      SUNNY     24  19  81 CALM      30.32R
DANVILLE*      CLOUDY    22  19  90 CALM      30.30R FOG
RANTOUL*       SUNNY     26  20  80 CALM      30.32S
MATTOON        SUNNY     25  20  81 NE5       30.32S WCI  19
PARIS*         SUNNY     25  22  88 CALM      30.34R
$$

ILZ079-100>102-191600-
SOUTHWEST ILLINOIS

CITY           SKY/WX    TMP DP  RH WIND       PRES   REMARKS
ALTON          CLOUDY    30  28  93 CALM      30.33R FOG
BELLEVILLE     SUNNY     31  30  99 E3        30.32S
CAHOKIA*       SUNNY     32  27  81 E6        30.32F WCI  26
SPARTA*        CLOUDY    31  28  88 NE5       30.31F WCI  26
$$

ILZ064>066-069>071-074>076-080>082-084>086-088>090-092>094-191600-
SOUTH-CENTRAL ILLINOIS

CITY           SKY/WX    TMP DP  RH WIND       PRES   REMARKS
CARBONDALE     CLOUDY    32  25  75 E6        30.30F WCI  26
CAIRO*         CLOUDY    36  31  81 NE7       30.32R WCI  30
EFFINGHAM*     SUNNY     29  22  77 N3        30.35R HAZE
MARION         CLOUDY    32  28  86 NE6       30.31F WCI  26
MT. VERNON     CLOUDY    28  21  74 NE6       30.33S WCI  22
CENTRALIA*     CLOUDY    31  24  76 E7        30.33S HAZE    WCI  25
SALEM*         PTSUNNY   32  26  78 E5        30.33S HAZE    WCI  27
METROPOLIS*    CLOUDY    33  29  86 NE6       30.31R FOG     WCI  28
$$

ILZ067-068-072-073-078-083-087-091-191600-
SOUTHEAST ILLINOIS

CITY           SKY/WX    TMP DP  RH WIND       PRES   REMARKS
LAWRENCEVILLE  SUNNY     30  24  78 CALM      30.34R
FLORA*         SUNNY     29  25  84 E3        30.34R FOG
FAIRFIELD*     SUNNY     30  26  83 E3        30.33R HAZE
HARRISBURG*    CLOUDY    32  28  85 NE7       30.32F WCI  26
ROBINSON*      SUNNY     28  25  86 N6        30.35R WCI  22
CARMI*         SUNNY     32  28  86 NE6       30.33S WCI  27
$$

ABBREVIATIONS USED IN REMARKS
   TC - TEMPERATURE IN CELSIUS
  WCI - WIND CHILL INDEX
   HX - HEAT INDEX
  VSB - VISIBILITY
$$




USA.gov is the U.S. government's official web portal to all federal, state and local government web resources and services.